Location: Buffign�court
(47.8126°N, 6.0176°E)
Time: 18:30:05
(UTC+00:00)

ATLAS 3B R/B - Pass Details

Date: 16 June 2021
Orbit: 1003 x 1191 km, 63.8° (Epoch: 21 July)

Event Time Altitude Azimuth Distance (km) Brightness Sun altitude
Rises 23:06:39 0° 238° (WSW) 3,730 5.3 -18.5°
Reaches altitude 10° 23:09:18 10° 244° (WSW) 2,793 4.7 -18.5°
Maximum altitude 23:15:41 51° 319° (NW) 1,279 3.4 -18.6°
Drops below altitude 10° 23:22:20 10° 36° (NE) 2,905 5.7 -18.7°
Sets 23:25:08 0° 41° (NE) 3,892 6.4 -18.8°
